[[{"header":{"parameterUnit":"m.s-1","parameterCategory":1,"la1":30.2991,"la2":30.254,"lo1":-89.0895,"lo2":-89.0444,"dy":0.0017,"dx":0.0017,"nx":28,"ny":28,"refTime":"2025-04-12T09:00:00:Z","depth":0,"parameterNumber":2,"parameterNumberName":"U-component_of_WINDS"},"data":[0,0,0,0,0,0,0,0,0,0,0,0,0,0,0,0,0,0,0,0,0,0,0,0,0,0,0,0,0,0,0,0,0,0,0,0,0,0,0,0,0,0,0,0,0,0,0,0,0,0,0,0,0,0,0,0,0,0,-2.8325,-2.8326,0,-2.8462,-2.8464,-2.8465,-2.8486,-2.8485,-2.8483,-2.8482,-2.8621,-2.8626,-2.8631,0,0,0,0,0,0,0,0,0,0,0,0,0,-2.808,-2.8084,-2.8325,-2.8327,-2.8328,-2.8462,-2.8464,-2.8465,-2.8486,-2.8485,-2.8483,-2.8482,-2.862,-2.8626,-2.8631,0,0,0,0,0,0,0,0,0,0,0,0,0,-2.8198,-2.8086,-2.8325,-2.8355,-2.8359,-2.8461,-2.8464,-2.8466,-2.8486,-2.8485,-2.8483,-2.8481,-2.8618,-2.8625,-2.8632,-2.8714,0,0,-2.8654,-2.8658,0,0,0,0,0,0,0,0,-2.8192,-2.8207,-2.8349,-2.8353,-2.8358,-2.8455,-2.8428,-2.8549,-2.8487,-2.8438,-2.8482,-2.848,-2.8567,-2.8579,-2.8608,-2.872,-2.8726,-2.8655,-2.8659,-2.8663,-2.8665,0,0,0,0,0,0,0,-2.8183,-2.8202,-2.8379,-2.8351,-2.8356,-2.8361,-2.8376,-2.8451,-2.8511,-2.8442,-2.8444,-2.846,-2.857,-2.8601,-2.8612,-2.8728,-2.8655,-2.8661,-2.8666,-2.8669,-2.8913,-2.8915,0,0,0,0,0,0,-2.817,-2.8195,-2.8375,-2.8383,-2.8268,-2.8367,-2.8383,-2.8426,-2.8511,-2.8522,-2.8461,-2.846,-2.859,-2.8603,-2.8617,-2.8717,-2.8663,-2.8669,-2.8674,-2.8911,-2.8914,-2.8916,0,0,0,0,0,0,-2.8165,-2.8186,-2.8369,-2.829,-2.8313,-2.8373,-2.842,-2.8429,-2.8461,-2.8525,-2.8536,-2.8483,-2.8589,-2.8607,-2.8689,-2.8722,-2.8673,-2.8679,-2.8909,-2.8912,-2.8915,-2.8918,0,0,0,0,0,0,-2.8157,-2.8184,-2.8216,-2.829,-2.8317,-2.844,-2.8422,-2.8433,-2.8474,-2.8474,-2.8548,-2.8559,-2.8589,-2.8678,-2.8697,-2.8731,-2.8685,-2.8906,-2.891,-2.8914,-2.8915,-2.8921,-2.8926,0,0,0,0,0,-2.8149,-2.8211,-2.8217,-2.8239,-2.8359,-2.8442,-2.8457,-2.8491,-2.8476,-2.8508,-2.855,-2.8556,-2.8716,-2.8687,-2.8707,-2.8744,-2.8904,-2.8909,-2.8914,-2.8913,-2.892,-2.8926,0,0,0,0,0,0,-2.8138,-2.8221,-2.8229,-2.8317,-2.8372,-2.8445,-2.8486,-2.8497,-2.8557,-2.8555,-2.8594,-2.8611,-2.8691,-2.8727,-2.8693,-2.8828,-2.8809,-2.8818,-2.8801,-2.8808,-2.8813,-2.8802,-2.8691,0,0,0,0,0,-2.8147,-2.8207,-2.8277,-2.8348,-2.8375,-2.8426,-2.8464,-2.8485,-2.8543,-2.8566,-2.8614,-2.867,-2.8732,-2.8773,-2.8834,-2.8921,-2.8937,-2.8957,-2.8962,-2.8966,-2.8973,-2.902,-2.903,-2.8932,-2.8932,-2.8932,0,0,-2.8164,-2.8217,-2.8252,-2.8347,-2.8392,-2.8453,-2.8445,-2.8511,-2.8557,-2.8576,-2.8657,-2.8694,-2.8759,-2.8844,-2.8884,-2.8876,-2.9004,-2.8972,-2.8975,-2.898,-2.9026,-2.9035,-2.9044,-2.8935,-2.8935,-2.8934,0,0,-2.8226,-2.8273,-2.8336,-2.8382,-2.845,-2.8484,-2.8499,-2.8571,-2.8596,-2.8678,-2.8693,-2.8748,-2.8856,-2.8901,-2.8938,-2.9018,-2.9026,-2.9037,-2.9064,-2.9109,-2.9117,-2.9124,-2.9151,-2.916,-2.9044,-2.9044,-2.9044,0,-2.8238,-2.8331,-2.8368,-2.8433,-2.8473,-2.8495,-2.8559,-2.8601,-2.8686,-2.8713,-2.8704,-2.8839,-2.8884,-2.8979,-2.8999,-2.9029,-2.9047,-2.9027,-2.9113,-2.9121,-2.9128,-2.9153,-2.9163,-2.9045,-2.9045,-2.9045,-2.9045,0,-2.8342,-2.8407,-2.845,-2.8531,-2.8577,-2.8642,-2.8687,-2.8729,-2.8747,-2.8781,-2.8864,-2.892,-2.8992,-2.9017,-2.9035,-2.9115,-2.9107,-2.9105,-2.9087,-2.9137,-2.9162,-2.9172,-2.9046,-2.9046,-2.9045,-2.9045,0,0,-2.84,-2.8501,-2.8516,-2.8553,-2.863,-2.868,-2.8746,-2.8817,-2.8851,-2.891,-2.8964,-2.9055,-2.9053,-2.9096,-2.9119,-2.916,-2.9217,-2.9153,-2.9155,-2.9161,-2.9307,-2.9306,-2.9317,-2.9224,-2.9226,-2.9228,-2.93,0,-2.8469,-2.8586,-2.8621,-2.8718,-2.8778,-2.8799,-2.8856,-2.8909,-2.8943,-2.8998,-2.9037,-2.9099,-2.9094,-2.9119,-2.916,-2.9201,-2.9247,-2.9197,-2.9274,-2.9276,-2.9254,-2.933,-2.933,-2.9395,-2.931,-2.9312,-2.9313,0,-2.8566,-2.8625,-2.8729,-2.8798,-2.8824,-2.8874,-2.8941,-2.8995,-2.9055,-2.9077,-2.9125,-2.9145,-2.9213,-2.9193,-2.9286,-2.9252,-2.9286,-2.9311,-2.9314,-2.9321,-2.9296,-2.9336,-2.9417,-2.9426,-2.9329,-2.9328,-2.9327,0,-2.8594,-2.8701,-2.8776,-2.8807,-2.889,-2.8925,-2.8961,-2.902,-2.906,-2.912,-2.9146,-2.9213,-2.9249,-2.93,-2.9337,-2.9319,-2.9427,-2.941,-2.9446,-2.9445,-2.9466,-2.9464,-2.9551,-2.9492,-2.9492,-2.9491,-2.9491,0,-2.8667,-2.8729,-2.879,-2.8836,-2.8906,-2.8946,-2.9013,-2.9051,-2.9103,-2.9156,-2.918,-2.923,-2.9277,-2.9333,-2.9363,-2.9435,-2.9452,-2.9471,-2.9477,-2.9467,-2.9465,-2.9488,-2.9484,-2.9494,-2.9494,-2.9493,-2.9493,0,-2.871,-2.8754,-2.8837,-2.8909,-2.8928,-2.8976,-2.9038,-2.9083,-2.9119,-2.9186,-2.9204,-2.9259,-2.9326,-2.9369,-2.9455,-2.9475,-2.9553,-2.956,-2.9532,-2.9535,-2.9568,-2.9563,-2.9671,-2.9687,-2.9619,-2.962,-2.962,0,-2.8752,-2.88,-2.8877,-2.8914,-2.8951,-2.9011,-2.9052,-2.9093,-2.9135,-2.9208,-2.9244,-2.9313,-2.9369,-2.9475,-2.9523,-2.9588,-2.9595,-2.9629,-2.9605,-2.9593,-2.9593,-2.9589,-2.9593,-2.9631,-2.9632,-2.9632,-2.9633,0,-2.8821,-2.8841,-2.8899,-2.8965,-2.9014,-2.9068,-2.9122,-2.9151,-2.9202,-2.9248,-2.9316,-2.936,-2.9447,-2.9514,-2.9584,-2.9621,-2.9635,-2.964,-2.9652,-2.964,-2.9622,-2.963,-2.954,-2.9637,-2.9637,-2.9636,-2.9636,-2.9636,-2.8864,-2.8907,-2.8968,-2.9032,-2.9077,-2.9127,-2.9172,-2.9214,-2.9272,-2.9345,-2.9367,-2.9438,-2.9497,-2.9592,-2.9631,-2.9687,-2.9683,-2.97,-2.9703,-2.9706,-2.9706,-2.9615,-2.97,-2.97,-2.97,-2.97,-2.97,0,-2.8933,-2.8973,-2.9032,-2.9106,-2.9156,-2.9167,-2.9227,-2.9268,-2.933,-2.9385,-2.944,-2.9518,-2.9584,-2.9637,-2.9704,-2.9739,-2.9747,-2.9755,-2.9751,-2.9759,-2.9707,-2.9689,-2.9747,-2.9747,-2.9747,-2.9747,-2.9747,-2.9747,-2.8974,-2.9047,-2.9073,-2.9169,-2.9209,-2.9278,-2.9312,-2.9358,-2.9401,-2.9487,-2.9542,-2.9576,-2.963,-2.9702,-2.9762,-2.9776,-2.9799,-2.9805,-2.982,-2.9769,-2.9763,-2.9758,-2.9742,-2.981,-2.981,-2.9868,-2.9869,-2.9869]},{"header":{"parameterUnit":"m.s-1","parameterCategory":1,"la1":30.2991,"la2":30.254,"lo1":-89.0895,"lo2":-89.0444,"dy":0.0017,"dx":0.0017,"nx":28,"ny":28,"refTime":"2025-04-12T09:00:00:Z","depth":0,"parameterNumber":3,"parameterNumberName":"V-component_of_WINDS"},"data":[0,0,0,0,0,0,0,0,0,0,0,0,0,0,0,0,0,0,0,0,0,0,0,0,0,0,0,0,0,0,0,0,0,0,0,0,0,0,0,0,0,0,0,0,0,0,0,0,0,0,0,0,0,0,0,0,0,0,1.592,1.5921,0,1.5941,1.5941,1.5941,1.591,1.5909,1.5908,1.5907,1.5926,1.5927,1.5929,0,0,0,0,0,0,0,0,0,0,0,0,0,1.5853,1.5855,1.592,1.5921,1.5921,1.5941,1.5941,1.5941,1.591,1.5909,1.5907,1.5906,1.5925,1.5927,1.5929,0,0,0,0,0,0,0,0,0,0,0,0,0,1.5879,1.5855,1.592,1.5908,1.5907,1.594,1.5941,1.5941,1.591,1.5909,1.5907,1.5906,1.5925,1.5927,1.5929,1.5975,0,0,1.5936,1.5937,0,0,0,0,0,0,0,0,1.5877,1.5881,1.5909,1.5909,1.5908,1.5921,1.5924,1.5953,1.5911,1.5909,1.5907,1.5905,1.5925,1.5928,1.5935,1.5976,1.5977,1.5936,1.5938,1.5939,1.5939,0,0,0,0,0,0,0,1.5876,1.588,1.5928,1.591,1.5909,1.5901,1.5903,1.5929,1.5926,1.5909,1.5907,1.591,1.5925,1.5933,1.5935,1.5977,1.5936,1.5938,1.594,1.5941,1.6057,1.6058,0,0,0,0,0,0,1.5876,1.5879,1.5928,1.5929,1.5888,1.5903,1.5905,1.5918,1.5926,1.5925,1.5911,1.5908,1.593,1.5932,1.5936,1.5989,1.5939,1.5941,1.5942,1.6055,1.6057,1.6059,0,0,0,0,0,0,1.5874,1.588,1.5927,1.5903,1.5909,1.5906,1.5921,1.592,1.5928,1.5927,1.5926,1.592,1.5928,1.5932,1.5966,1.5989,1.5942,1.5944,1.6053,1.6056,1.6058,1.6098,0,0,0,0,0,0,1.5873,1.588,1.5898,1.5904,1.591,1.5957,1.5923,1.5921,1.5932,1.5928,1.5935,1.5935,1.5928,1.5962,1.5968,1.5992,1.5946,1.6051,1.6054,1.6057,1.6094,1.6101,1.6107,0,0,0,0,0,1.587,1.5908,1.5899,1.5905,1.5933,1.5959,1.5962,1.5953,1.5934,1.5951,1.5951,1.5935,1.5986,1.5966,1.5972,1.5997,1.6049,1.6053,1.6057,1.6091,1.61,1.6107,0,0,0,0,0,0,1.5905,1.5909,1.5899,1.594,1.5949,1.5953,1.5975,1.5963,1.5977,1.5973,1.5961,1.5963,1.5999,1.6001,1.5979,1.6042,1.6014,1.602,1.6038,1.6047,1.6053,1.6051,1.5947,0,0,0,0,0,1.5917,1.5938,1.5941,1.5977,1.5982,1.5978,1.5989,1.5981,1.599,1.5994,1.5996,1.6005,1.6023,1.6035,1.6052,1.6095,1.6095,1.6115,1.6121,1.6127,1.6131,1.6153,1.6161,1.6072,1.6072,1.6072,0,0,1.5943,1.5948,1.5962,1.5984,1.599,1.6012,1.5981,1.6006,1.6021,1.5998,1.6029,1.6031,1.604,1.6078,1.6095,1.6081,1.6156,1.6132,1.6136,1.6137,1.6158,1.6166,1.6174,1.6074,1.6074,1.6074,0,0,1.6,1.6007,1.6037,1.6044,1.6054,1.6051,1.6059,1.6065,1.6065,1.6097,1.6079,1.6097,1.6129,1.6136,1.6143,1.6204,1.6189,1.621,1.6243,1.6265,1.6272,1.6278,1.6298,1.6306,1.6214,1.6214,1.6214,0,1.6031,1.6063,1.6054,1.6079,1.6089,1.6069,1.6099,1.6106,1.6121,1.6128,1.6113,1.6152,1.6157,1.6195,1.621,1.6218,1.6225,1.6208,1.6272,1.6278,1.6283,1.6303,1.631,1.6217,1.6216,1.6216,1.6216,0,1.6099,1.6122,1.6145,1.616,1.6173,1.6201,1.6195,1.6209,1.62,1.6199,1.623,1.6236,1.6253,1.6261,1.6253,1.6299,1.629,1.6274,1.6246,1.6294,1.6312,1.632,1.622,1.6219,1.6218,1.6218,0,0,1.6178,1.6188,1.6197,1.6203,1.6213,1.623,1.6256,1.6273,1.6285,1.6296,1.6317,1.6345,1.6329,1.6338,1.633,1.635,1.6395,1.633,1.633,1.6341,1.6445,1.6456,1.6465,1.6386,1.6388,1.6389,1.6444,0,1.6235,1.6281,1.6273,1.6317,1.6338,1.6319,1.6342,1.635,1.635,1.6366,1.6365,1.6385,1.6364,1.6369,1.6387,1.6386,1.6416,1.6382,1.6405,1.6405,1.6402,1.6474,1.6487,1.6538,1.6451,1.6452,1.6453,0,1.6306,1.632,1.6367,1.6373,1.6381,1.6402,1.6416,1.6433,1.6441,1.644,1.645,1.6439,1.6464,1.6437,1.6472,1.6449,1.6458,1.6459,1.6461,1.6461,1.6431,1.6476,1.6554,1.6562,1.6464,1.6463,1.6462,0,1.6358,1.6388,1.642,1.6426,1.6434,1.6449,1.6453,1.646,1.647,1.6483,1.649,1.6505,1.6513,1.6526,1.6519,1.65,1.6554,1.6527,1.6552,1.6553,1.6563,1.6563,1.6643,1.6572,1.6572,1.6571,1.6571,0,1.6421,1.645,1.6443,1.6462,1.6493,1.6484,1.6516,1.6517,1.6524,1.6542,1.6527,1.6545,1.6536,1.6553,1.6548,1.6576,1.658,1.6579,1.6577,1.658,1.658,1.6584,1.658,1.6573,1.6573,1.6573,1.6572,0,1.6483,1.648,1.6513,1.6518,1.652,1.6542,1.6546,1.6564,1.6562,1.6586,1.6591,1.6588,1.6607,1.6602,1.6623,1.6619,1.6655,1.665,1.6652,1.665,1.6676,1.6673,1.6761,1.6772,1.6695,1.6695,1.6696,0,1.6523,1.6545,1.6552,1.6564,1.6569,1.6588,1.6598,1.659,1.6602,1.6613,1.6629,1.6647,1.6661,1.6692,1.6691,1.6707,1.67,1.673,1.6702,1.6704,1.6699,1.6697,1.6699,1.6735,1.6736,1.6737,1.6738,0,1.6593,1.6591,1.6607,1.6622,1.6636,1.6647,1.6658,1.6668,1.6661,1.6674,1.6694,1.6704,1.6726,1.6743,1.6757,1.676,1.6747,1.6747,1.6753,1.6755,1.6755,1.6754,1.6666,1.6744,1.6743,1.6743,1.6743,1.6742,1.6645,1.6663,1.6671,1.6689,1.6696,1.6706,1.6722,1.6723,1.6739,1.6756,1.675,1.6772,1.6779,1.6797,1.6802,1.6819,1.6807,1.6817,1.6819,1.6821,1.6824,1.6754,1.6822,1.6821,1.6821,1.6821,1.6821,0,1.6713,1.6718,1.6735,1.6749,1.6764,1.6751,1.6762,1.6774,1.6794,1.6802,1.6816,1.6838,1.6855,1.6856,1.6871,1.6884,1.6879,1.6888,1.6887,1.6887,1.6834,1.6826,1.6893,1.6893,1.6893,1.6893,1.6893,1.6892,1.6751,1.678,1.6778,1.6811,1.6815,1.6836,1.6843,1.6852,1.6858,1.6883,1.6897,1.6898,1.6903,1.6919,1.6934,1.6933,1.6939,1.6951,1.6948,1.6898,1.6891,1.6884,1.6877,1.6953,1.6953,1.7,1.7001,1.7001]}]]